Find Starlink 34041

NORAD ID: 63844 Int'l Des: 2025-093 Owner: SPXS Country: US Constellation: starlink operational
LEOCIRCULAR

当前视图

正在加载3D地球...

About Starlink 34041

Starlink 34041 (NORAD 63844) is a starlink constellation satellite (v2 mini) launched May 7, 2025 by SPXS of US. It operates in LEO, CIRCULAR orbit with a mass of 575.00 kg.

关于 Starlink 34041

正在加载描述...

即将过境

Passes for default location (London). Set your location on the main map for personalized predictions.

高度历史

Loading altitude history...

两行轨道根数

1 63844U 25093J 26161.04733926 .00024989 00000-0 91345-3 0 9991
2 63844 43.0028 276.6123 0006128 265.2552 94.7600 15.27604879 62097
Epoch: Jun 10, 2026 • Age: 11 hours

当前状态

高度 490.9 km
速度 7.62 km/s
星下点 -39.49°S, 136.42°E
发射日期 May 7, 2025
运行时间 1 year
类型 internet

技术详情

分类 Payload
质量 575.00 kg
干质量 530.00 kg
总质量 575.00 kg
长度 0.30 m
直径 4.10 m
跨度 29.00 m
形状 Box + pan
制造商 SPXS
平台类型 Starlink V2MO
阶段状态 In Orbit
所有者/国家 SPXS/US

Most Searched